FLYING LAPTOP (42831 NORAD) Tracking and Keplerian Element Data

This shows tracking and keplerian element data for the satellite.

Feedback or suggestion? Click here.




ElementValue
Catalog42831
NameFLYING LAPTOP
Epoch Orbit7342
Epoch Day323.19397713
Epoch Year2018
RAAN219.6132
Inclination97.5826
Eccentricity0.0015339
Argument of Perigee48.1921
Mean Anonmoly312.0605
Mean Motion14.90919229
Decay Rate2.92E-06
L11 42831U 17042G 18323.19397713 .00000292 00000-0 34995-4 0 9996
L22 42831 97.5826 219.6132 0015339 48.1921 312.0605 14.90919229 73426

Live tracking and technical data element details for FLYING LAPTOP (NORAD 42831). FLYING LAPTOP can be tracked NOW for your location showing map with azimuth and elevation plus other details from your city location.

Track the satellite on the map from your city or location and see movement details for azimuth, elevation, latitude, longitude, range, height, and movement on the map or in text.







IsCatalogInMostPopularTable: catalog: 42831, numindb: 121
Update: records affected: 1



GetName: 42831 FLYING LAPTOP

Hit Count: updated at: Tue, 20 Nov 2018 00:14:42 GMT